Weather in Machala

Ecuador     3°16′11″S   79°57′02″W
temp.,
°C
wind,
m/s
gust,
m/s
humid.,
%
clouds,
%
prec.,
mm/h
press.,
hPa
HPBL,
m
8 may, sat
sat801:00+23w118860 0.9 1013179
04:00+23wnw1188100 0.2 1012184
07:00+23n1188100 0.2 1013189
10:00+25n227641 0.0 1014646
13:00+27nw436966 0.0 1011781
16:00+27wnw437099 0.0 1009533
19:00+24w228494 0.0 1011179
22:00+24w228736 0.0 1013189
9 may, sun
sun901:00+23w228699 0.1 1012239
04:00+23sw118582 0.1 1011203
07:00+24nnw118415 0.1 1011223
10:00+26nw327254 0.0 1012782
13:00+27nw336722 0.0 1010697
16:00+26wnw44749 0.0 1008554
19:00+24w348336 0.0 1011265
22:00+24wnw1285100 0.0 1012194
10 may, mon
mon1001:00+23sw018886 0.0 1011162
04:00+23w118877 0.0 1010189
07:00+23nnw128679 0.1 1011283
10:00+25nw227776 0.1 1012635
13:00+26wnw337341 0.1 1010741
16:00+25wnw437415 0.0 1008587
19:00+23w238515 0.0 1010181
22:00+23wnw228711 0.0 1012170
11 may, tue
tue1101:00+23wnw128698 0.0 1011266
04:00+23w2284100 0.1 1011286
07:00+23n118297 0.1 1011245
10:00+27nw216814 0.0 1012673
13:00+27nw3267100 0.0 1010789
16:00+26wnw436997 0.0 1008611
19:00+24w238257 0.0 1010183
22:00+23wsw228596 0.0 1012175
12 may, wed
wed1201:00+23wsw128263 0.0 1011219
04:00+23wsw118197 0.0 1010196
07:00+23ne128057 0.0 1011277
10:00+27nnw226710 0.0 1012702
13:00+27wnw436532 0.0 1010768
16:00+27wnw436819 0.0 1008568
19:00+24w347871 0.0 1009190
22:00+24w118212 0.0 1011152